Terminal Aerodrome Forecast
Issued by NWS Charleston, WV

Current Version | Previous Version | Graphics & Text | Print | Product List | Glossary On
Versions: 1 2 3 4 5 6 7 8 9 10 11 12 13 14 15 16 17 18 19 20 21 22
000
FTUS41 KRLX 152300
TAFHTS
TAF
KHTS 152332Z 1600/1624 VRB04KT P6SM SCT250
     FM160700 VRB03KT 6SM -SHRA OVC035
     FM161200 18007KT P6SM OVC025
     FM161600 22008G16KT P6SM VCSH OVC025=

USA.gov is the U.S. government's official web portal to all federal, state and local government web resources and services.